CO-66
1 32791U 08021J 12157.65919571 .00001765 00000-0 22101-3 0 03130
2 32791 097.8020 218.9999 0016830 097.9353 262.3821 14.83392492222039
RS-30
1 32953U 08025A 12158.82641211 .00000010 00000-0 00000 0 0 8437
2 32953 082.5006 301.5800 0018186 333.8295 026.1869 12.43024289183277
TACSAT-3
1 35001U 09028A 12121.72616188 .15204951 73582-5 42606-3 0 00016
2 35001 040.4259 351.8840 0007146 275.2650 085.0693 16.45157000166990
PHARMSAT
1 35002U 09028B 12157.96524924 .00137550 00000-0 62420-3 0 09242
2 35002 040.4568 139.1741 0006832 160.1824 200.0419 15.82626312172547
METEOR-M
1 35865U 09049A 12158.66410313 -.00000014 00000-0 13357-4 0 4758
2 35865 098.6560 213.1873 0003405 082.9171 277.2389 14.21863307141108
RS-38
1 35869U 09049E 12158.68681318 .00000032 00000-0 34113-4 0 4830
2 35869 098.6505 213.2057 0005555 082.2748 277.9061 14.22072727141122
JUGNU
1 37839U 11058B 12157.93497370 .00000620 00000-0 19019-3 0 01615
2 37839 019.9606 066.3935 0020321 099.7662 260.4994 14.12058464033658
SRMSAT
1 37841U 11058D 12157.90340637 .00000264 00000-0 00000 0 0 1618
2 37841 019.9710 071.2616 0011701 068.4107 291.7576 14.10142236 33592
RAX-2
1 37853U 11061D 12158.57338924 .00006087 00000-0 48642-3 0 1960
2 37853 101.7152 193.9243 0247146 021.1957 339.9269 14.79965231 32828
AUBIESAT
1 37854U 11061E 12158.86881027 .00006921 00000-0 54433-3 0 1973
2 37854 101.7151 194.5867 0247625 019.9236 341.1437 14.80342593 32862
HRBE
1 37855U 11061F 12157.93515433 .00006085 00000-0 47988-3 0 02076
2 37855 101.7187 193.1911 0248695 022.5346 338.6557 14.80189942032723
RS-39
1 38051U 11062C 12158.87908565 .00009506 00000-0 39783-3 0 4002
2 38051 051.6350 208.9531 0012633 002.1145 352.5016 15.24154072 20392
E-STAR
1 38079U 12006C 12158.83908563 .00024521 00000-0 60011-3 0 2735
2 38079 069.4939 339.3143 0747467 260.9524 090.6279 14.14217464 16125
GOLIAT
1 38085U 12006J 12157.90351288 .00025298 00000-0 61731-3 0 2502
2 38085 069.4918 341.6738 0752417 262.2342 089.2932 14.13215935 15982
HORYU-2
1 38340U 12025D 12158.95660614 .00001536 00000-0 26456-3 0 242
2 38340 098.1764 098.6634 0013197 008.7013 351.4437 14.69960263 2972
